| time (UTC) | temp C | wind direction | speed KPH | gust KPH | rain 1hr cm | rain 24hr cm | rain mn cm | humidity % | barometer mb |
| 20260505111711 | 12 | 204 | 0.0 | 0.0 | 0.00 | 0.05 | 0.05 | 98 | 1008.7 |
| 20260505111207 | 12 | 200 | 0.0 | 0.0 | 0.00 | 0.05 | 0.05 | 99 | 1008.9 |
| 20260505110703 | 11 | 192 | 0.0 | 0.0 | 0.00 | 0.05 | 0.05 | 99 | 1008.9 |
| 20260505110201 | 11 | 199 | 0.0 | 0.0 | 0.00 | 0.05 | 0.05 | 99 | 1008.8 |
| 20260505102136 | 10 | 204 | 0.0 | 0.0 | 0.00 | 0.05 | 0.05 | 99 | 1008.5 |
| 20260505101635 | 10 | 206 | 0.0 | 0.0 | 0.00 | 0.05 | 0.05 | 99 | 1008.6 |
| 20260505101131 | 10 | 201 | 0.0 | 0.0 | 0.00 | 0.05 | 0.05 | 99 | 1008.3 |
| 20260505100627 | 10 | 201 | 0.0 | 0.0 | 0.00 | 0.05 | 0.05 | 99 | 1008.4 |
| 20260505100124 | 10 | 191 | 0.0 | 0.0 | 0.00 | 0.05 | 0.05 | 99 | 1008.5 |
| 20260505095620 | 10 | 199 | 0.0 | 0.0 | 0.00 | 0.05 | 0.05 | 99 | 1008.5 |
| 20260505095117 | 10 | 192 | 0.0 | 0.0 | 0.00 | 0.05 | 0.05 | 99 | 1008.5 |
| 20260505094614 | 10 | 195 | 0.0 | 0.0 | 0.00 | 0.05 | 0.05 | 99 | 1008.8 |
| 20260505094110 | 10 | 197 | 0.0 | 0.0 | 0.00 | 0.05 | 0.05 | 99 | 1008.6 |
| 20260505093606 | 10 | 201 | 0.0 | 0.0 | 0.00 | 0.05 | 0.05 | 99 | 1008.6 |
| 20260505093104 | 10 | 201 | 0.0 | 0.0 | 0.00 | 0.05 | 0.05 | 99 | 1008.6 |
| 20260505092601 | 10 | 201 | 0.0 | 0.0 | 0.00 | 0.05 | 0.05 | 99 | 1008.5 |
| 20260505092100 | 10 | 202 | 0.0 | 0.0 | 0.00 | 0.05 | 0.05 | 99 | 1008.3 |
| 20260505091556 | 10 | 211 | 0.0 | 0.0 | 0.00 | 0.05 | 0.05 | 99 | 1008.3 |
| 20260505091055 | 10 | 199 | 0.0 | 0.0 | 0.00 | 0.05 | 0.05 | 99 | 1008.0 |
| 20260505090552 | 9 | 198 | 0.0 | 0.0 | 0.00 | 0.05 | 0.05 | 99 | 1007.9 |
| 20260505090050 | 8 | 203 | 0.0 | 0.0 | 0.00 | 0.05 | 0.05 | 99 | 1008.0 |
| 20260505085547 | 10 | 208 | 0.0 | 0.0 | 0.00 | 0.05 | 0.05 | 99 | 1008.1 |
| 20260505085046 | 9 | 201 | 0.0 | 0.0 | 0.00 | 0.05 | 0.05 | 99 | 1007.7 |
| 20260505084543 | 9 | 206 | 0.0 | 0.0 | 0.00 | 0.05 | 0.05 | 99 | 1007.9 |
| 20260505084041 | 9 | 202 | 0.0 | 0.0 | 0.00 | 0.05 | 0.05 | 99 | 1008.0 |
| 20260505083537 | 8 | 201 | 0.0 | 0.0 | 0.00 | 0.05 | 0.05 | 99 | 1008.1 |
| 20260505083034 | 8 | 202 | 0.0 | 0.0 | 0.00 | 0.05 | 0.05 | 98 | 1008.0 |
| 20260505082530 | 10 | 198 | 0.0 | 0.0 | 0.00 | 0.05 | 0.05 | 99 | 1007.9 |
| 20260505082027 | 9 | 200 | 0.0 | 0.0 | 0.00 | 0.05 | 0.05 | 98 | 1008.1 |
| 20260505081523 | 10 | 200 | 0.0 | 0.0 | 0.00 | 0.05 | 0.05 | 98 | 1008.0 |
| 20260505081020 | 10 | 200 | 0.0 | 0.0 | 0.00 | 0.05 | 0.05 | 98 | 1008.4 |
| 20260505080517 | 10 | 200 | 0.0 | 0.0 | 0.00 | 0.05 | 0.05 | 98 | 1007.8 |
| 20260505080013 | 10 | 200 | 0.0 | 0.0 | 0.00 | 0.05 | 0.05 | 98 | 1008.1 |
| 20260505075509 | 10 | 201 | 0.0 | 0.0 | 0.00 | 0.05 | 0.05 | 98 | 1007.9 |
| 20260505075006 | 10 | 201 | 0.0 | 0.0 | 0.00 | 0.05 | 0.05 | 98 | 1007.9 |
| 20260505074504 | 10 | 199 | 0.0 | 0.0 | 0.00 | 0.05 | 0.05 | 98 | 1007.9 |
| 20260505074000 | 10 | 197 | 0.0 | 0.0 | 0.00 | 0.05 | 0.05 | 98 | 1007.7 |
| 20260505073458 | 10 | 199 | 0.0 | 0.0 | 0.00 | 0.05 | 0.05 | 98 | 1007.6 |
| 20260505072955 | 10 | 206 | 0.0 | 0.0 | 0.00 | 0.05 | 0.05 | 98 | 1007.7 |
| 20260505072451 | 10 | 202 | 0.0 | 0.0 | 0.00 | 0.05 | 0.05 | 98 | 1007.5 |
| 20260505071948 | 10 | 201 | 0.0 | 0.0 | 0.00 | 0.05 | 0.05 | 97 | 1007.5 |
| 20260505071443 | 11 | 202 | 0.0 | 0.0 | 0.00 | 0.05 | 0.05 | 97 | 1007.6 |
| 20260505070942 | 11 | 197 | 0.0 | 0.0 | 0.00 | 0.05 | 0.05 | 97 | 1007.4 |
| 20260505070438 | 11 | 200 | 0.0 | 0.0 | 0.00 | 0.05 | 0.05 | 97 | 1007.7 |
| 20260505065934 | 11 | 200 | 0.0 | 0.0 | 0.00 | 0.05 | 0.05 | 96 | 1007.4 |
| 20260505065431 | 11 | 196 | 0.0 | 0.0 | 0.00 | 0.05 | 0.05 | 96 | 1007.4 |
| 20260505064927 | 11 | 201 | 0.0 | 0.0 | 0.00 | 0.05 | 0.05 | 96 | 1007.4 |
| 20260505064424 | 11 | 201 | 0.0 | 0.0 | 0.00 | 0.05 | 0.05 | 96 | 1007.5 |
| 20260505063923 | 11 | 202 | 0.0 | 0.0 | 0.00 | 0.05 | 0.05 | 95 | 1007.6 |
| 20260505063419 | 12 | 210 | 0.0 | 0.0 | 0.00 | 0.05 | 0.05 | 95 | 1007.6 |
| 20260505062915 | 12 | 202 | 0.0 | 0.0 | 0.00 | 0.05 | 0.05 | 95 | 1007.6 |
| 20260505062413 | 12 | 206 | 0.0 | 0.0 | 0.00 | 0.05 | 0.05 | 94 | 1007.6 |
| 20260505061909 | 12 | 206 | 0.0 | 0.0 | 0.00 | 0.05 | 0.05 | 94 | 1007.7 |
| 20260505061408 | 12 | 201 | 0.0 | 0.0 | 0.00 | 0.05 | 0.05 | 93 | 1007.5 |
| 20260505060905 | 12 | 204 | 0.0 | 0.0 | 0.00 | 0.05 | 0.05 | 93 | 1007.5 |
| 20260505060401 | 13 | 162 | 0.0 | 0.0 | 0.30 | 0.05 | 0.05 | 91 | 1007.5 |
| 20260505055858 | 12 | 257 | 0.0 | 0.0 | 0.30 | 0.05 | 0.05 | 88 | 1007.5 |
| 20260505055355 | 13 | 196 | 0.0 | 0.0 | 0.13 | 0.03 | 0.03 | 86 | 1007.6 |
| 20260505054852 | 13 | 215 | 0.0 | 0.0 | 0.00 | 0.00 | 0.00 | 84 | 1007.9 |
| 20260505054349 | 13 | 202 | 0.0 | 0.0 | 0.00 | 0.00 | 0.00 | 83 | 1007.7 |
| 20260505053847 | 13 | 206 | 0.0 | 0.0 | 0.00 | 0.00 | 0.00 | 83 | 1007.8 |
| 20260505053344 | 13 | 202 | 0.0 | 0.0 | 0.00 | 0.00 | 0.00 | 82 | 1007.7 |
| 20260505052841 | 13 | 203 | 0.0 | 0.0 | 0.00 | 0.00 | 0.00 | 82 | 1007.7 |
| 20260505052337 | 12 | 198 | 0.0 | 0.0 | 0.00 | 0.00 | 0.00 | 82 | 1007.9 |
| 20260505051835 | 12 | 197 | 0.0 | 0.0 | 0.00 | 0.00 | 0.00 | 85 | 1008.0 |
| 20260505051332 | 12 | 198 | 0.0 | 0.0 | 0.00 | 0.00 | 0.00 | 84 | 1007.9 |
| 20260505050830 | 12 | 192 | 0.0 | 0.0 | 0.00 | 0.00 | 0.00 | 84 | 1008.0 |
| 20260505050328 | 12 | 202 | 0.0 | 0.0 | 0.00 | 0.00 | 0.00 | 85 | 1008.1 |
| 20260505041757 | 12 | 196 | 0.0 | 0.0 | 0.00 | 0.00 | 0.00 | 83 | 1007.8 |
| 20260505041255 | 12 | 202 | 0.0 | 0.0 | 0.00 | 0.00 | 0.00 | 83 | 1008.1 |
| 20260505040752 | 12 | 203 | 0.0 | 0.0 | 0.00 | 0.00 | 0.00 | 84 | 1007.7 |
| 20260505040249 | 12 | 202 | 0.0 | 0.0 | 0.00 | 0.00 | 0.00 | 84 | 1007.8 |
| 20260505035746 | 12 | 200 | 0.0 | 0.0 | 0.00 | 0.00 | 0.00 | 84 | 1007.8 |
| 20260505035242 | 12 | 200 | 0.0 | 0.0 | 0.00 | 0.00 | 0.00 | 83 | 1007.6 |
| 20260505034739 | 12 | 202 | 0.0 | 0.0 | 0.00 | 0.00 | 0.00 | 83 | 1007.7 |
| 20260505034236 | 12 | 202 | 0.0 | 0.0 | 0.00 | 0.00 | 0.00 | 83 | 1007.4 |
| 20260505033732 | 12 | 202 | 0.0 | 0.0 | 0.00 | 0.00 | 0.00 | 82 | 1007.4 |
| 20260505033230 | 12 | 205 | 0.0 | 0.0 | 0.00 | 0.00 | 0.00 | 82 | 1007.4 |
| 20260505032728 | 12 | 201 | 0.0 | 0.0 | 0.00 | 0.00 | 0.00 | 83 | 1007.5 |
| 20260505032224 | 12 | 201 | 0.0 | 0.0 | 0.00 | 0.00 | 0.00 | 83 | 1007.5 |
| 20260505031721 | 12 | 201 | 0.0 | 0.0 | 0.00 | 0.00 | 0.00 | 82 | 1007.4 |
| 20260505031217 | 12 | 199 | 0.0 | 0.0 | 0.00 | 0.00 | 0.00 | 81 | 1007.4 |
| 20260505030715 | 13 | 202 | 0.0 | 0.0 | 0.00 | 0.00 | 0.00 | 80 | 1007.6 |
| 20260505030211 | 13 | 203 | 0.0 | 0.0 | 0.00 | 0.00 | 0.00 | 79 | 1007.7 |
| 20260505025707 | 13 | 204 | 0.0 | 0.0 | 0.00 | 0.00 | 0.00 | 77 | 1007.4 |
| 20260505025206 | 13 | 211 | 0.0 | 0.0 | 0.00 | 0.00 | 0.00 | 79 | 1007.4 |
| 20260505024703 | 13 | 203 | 0.0 | 0.0 | 0.00 | 0.00 | 0.00 | 80 | 1007.4 |
| 20260505024200 | 13 | 206 | 0.0 | 0.0 | 0.00 | 0.00 | 0.00 | 80 | 1007.3 |
| 20260505023657 | 13 | 199 | 0.0 | 0.0 | 0.00 | 0.00 | 0.00 | 77 | 1007.3 |
| 20260505023154 | 13 | 205 | 0.0 | 0.0 | 0.00 | 0.00 | 0.00 | 77 | 1007.2 |
| 20260505022651 | 13 | 209 | 0.0 | 0.0 | 0.00 | 0.00 | 0.00 | 79 | 1007.3 |
| 20260505022148 | 13 | 199 | 0.0 | 0.0 | 0.00 | 0.00 | 0.00 | 78 | 1007.5 |
| 20260505021645 | 14 | 202 | 0.0 | 0.0 | 0.00 | 0.00 | 0.00 | 77 | 1007.5 |
| 20260505021142 | 14 | 203 | 0.0 | 0.0 | 0.00 | 0.00 | 0.00 | 76 | 1007.4 |
| 20260505020637 | 14 | 204 | 0.0 | 0.0 | 0.00 | 0.00 | 0.00 | 76 | 1007.5 |
| 20260505020133 | 15 | 203 | 0.0 | 0.0 | 0.00 | 0.00 | 0.00 | 75 | 1007.2 |
| 20260505015631 | 15 | 201 | 0.0 | 0.0 | 0.00 | 0.00 | 0.00 | 75 | 1007.3 |
| 20260505015127 | 15 | 196 | 0.0 | 0.0 | 0.00 | 0.00 | 0.00 | 73 | 1007.3 |
| 20260505014624 | 15 | 203 | 0.0 | 0.0 | 0.00 | 0.00 | 0.00 | 75 | 1007.1 |
| 20260505014121 | 15 | 203 | 0.0 | 0.0 | 0.00 | 0.00 | 0.00 | 74 | 1007.0 |
| 20260505013619 | 16 | 204 | 0.0 | 0.0 | 0.00 | 0.00 | 0.00 | 72 | 1007.3 |
| 20260505013116 | 16 | 199 | 0.0 | 0.0 | 0.00 | 0.00 | 0.00 | 69 | 1007.1 |
| 20260505012614 | 16 | 203 | 0.0 | 0.0 | 0.00 | 0.00 | 0.00 | 68 | 1007.1 |
| 20260505012110 | 16 | 203 | 0.0 | 0.0 | 0.00 | 0.00 | 0.00 | 67 | 1007.1 |
| 20260505011606 | 16 | 203 | 0.0 | 0.0 | 0.00 | 0.00 | 0.00 | 66 | 1007.1 |
| 20260505011104 | 16 | 205 | 0.0 | 0.0 | 0.00 | 0.00 | 0.00 | 64 | 1007.0 |
| 20260505010604 | 16 | 206 | 0.0 | 0.0 | 0.00 | 0.00 | 0.00 | 67 | 1006.9 |
| 20260505005557 | 17 | 207 | 0.0 | 0.0 | 0.00 | 0.00 | 0.00 | 66 | 1006.8 |
| 20260505005055 | 17 | 203 | 0.0 | 0.0 | 0.00 | 0.00 | 0.00 | 63 | 1006.5 |
| 20260505004552 | 17 | 203 | 0.0 | 0.0 | 0.00 | 0.00 | 0.00 | 63 | 1006.8 |
| 20260505004048 | 17 | 200 | 0.0 | 1.6 | 0.00 | 0.00 | 0.00 | 63 | 1006.5 |
| 20260505003546 | 17 | 208 | 1.6 | 1.6 | 0.00 | 0.00 | 0.00 | 62 | 1006.6 |
| 20260505003043 | 18 | 202 | 0.0 | 0.0 | 0.00 | 0.00 | 0.00 | 58 | 1006.7 |
| 20260505002543 | 18 | 203 | 0.0 | 0.0 | 0.00 | 0.00 | 0.00 | 57 | 1006.6 |
| 20260505002037 | 19 | 209 | 3.2 | 3.2 | 0.00 | 0.00 | 0.00 | 53 | 1006.2 |
| 20260505001534 | 19 | 202 | 0.0 | 0.0 | 0.00 | 0.00 | 0.00 | 52 | 1006.5 |
| 20260505001031 | 20 | 214 | 1.6 | 3.2 | 0.00 | 0.00 | 0.00 | 51 | 1006.2 |
| 20260505000528 | 20 | 208 | 4.8 | 4.8 | 0.00 | 0.00 | 0.00 | 48 | 1006.3 |
| 20260505000026 | 20 | 212 | 3.2 | 3.2 | 0.00 | 0.00 | 0.00 | 51 | 1006.3 |
| 20260504235522 | 20 | 212 | 1.6 | 1.6 | 0.00 | 0.00 | 0.00 | 50 | 1006.3 |
| 20260504235019 | 21 | 213 | 1.6 | 1.6 | 0.00 | 0.00 | 0.00 | 48 | 1006.2 |
| 20260504234516 | 20 | 218 | 4.8 | 4.8 | 0.00 | 0.00 | 0.00 | 45 | 1006.2 |
| 20260504234013 | 21 | 210 | 4.8 | 4.8 | 0.00 | 0.00 | 0.00 | 48 | 1006.2 |
| 20260504233508 | 22 | 217 | 1.6 | 3.2 | 0.00 | 0.00 | 0.00 | 45 | 1006.3 |
| 20260504233005 | 22 | 213 | 3.2 | 3.2 | 0.00 | 0.00 | 0.00 | 42 | 1005.7 |
| 20260504232502 | 22 | 199 | 0.0 | 1.6 | 0.00 | 0.00 | 0.00 | 40 | 1006.1 |
| 20260504232000 | 22 | 219 | 8.0 | 9.7 | 0.00 | 0.00 | 0.00 | 39 | 1005.8 |
| 20260504231456 | 23 | 201 | 4.8 | 8.0 | 0.00 | 0.00 | 0.00 | 39 | 1006.1 |
| 20260504230952 | 22 | 206 | 4.8 | 4.8 | 0.00 | 0.00 | 0.00 | 39 | 1005.8 |
| 20260504230449 | 22 | 216 | 6.4 | 9.7 | 0.00 | 0.00 | 0.00 | 40 | 1006.0 |
| 20260504225948 | 22 | 189 | 6.4 | 8.0 | 0.00 | 0.00 | 0.00 | 39 | 1006.0 |
| 20260504225444 | 22 | 182 | 4.8 | 4.8 | 0.00 | 0.00 | 0.00 | 37 | 1005.9 |
| 20260504224942 | 22 | 207 | 12.9 | 16.1 | 0.00 | 0.00 | 0.00 | 38 | 1006.0 |
| 20260504224438 | 23 | 195 | 11.3 | 14.5 | 0.00 | 0.00 | 0.00 | 38 | 1005.8 |
| 20260504223935 | 23 | 210 | 4.8 | 4.8 | 0.00 | 0.00 | 0.00 | 37 | 1005.9 |
| 20260504223431 | 23 | 205 | 3.2 | 3.2 | 0.00 | 0.00 | 0.00 | 39 | 1006.0 |
| 20260504222927 | 23 | 205 | 8.0 | 11.3 | 0.00 | 0.00 | 0.00 | 36 | 1005.9 |
| 20260504222425 | 23 | 233 | 11.3 | 12.9 | 0.00 | 0.00 | 0.00 | 38 | 1005.6 |
| 20260504221922 | 23 | 213 | 8.0 | 11.3 | 0.00 | 0.00 | 0.00 | 38 | 1005.8 |
| 20260504221419 | 23 | 226 | 8.0 | 9.7 | 0.00 | 0.00 | 0.00 | 39 | 1005.7 |
| 20260504220916 | 23 | 221 | 9.7 | 12.9 | 0.00 | 0.00 | 0.00 | 36 | 1005.6 |
| 20260504220413 | 23 | 244 | 9.7 | 11.3 | 0.00 | 0.00 | 0.00 | 37 | 1005.9 |
| 20260504215910 | 24 | 216 | 17.7 | 24.1 | 0.00 | 0.00 | 0.00 | 36 | 1005.7 |
| 20260504215406 | 24 | 224 | 11.3 | 12.9 | 0.00 | 0.00 | 0.00 | 35 | 1005.9 |
| 20260504214902 | 24 | 195 | 11.3 | 12.9 | 0.00 | 0.00 | 0.00 | 36 | 1005.9 |
| 20260504214359 | 24 | 225 | 14.5 | 16.1 | 0.00 | 0.00 | 0.00 | 35 | 1005.9 |
| 20260504213856 | 24 | 247 | 8.0 | 14.5 | 0.00 | 0.00 | 0.00 | 38 | 1006.0 |
| 20260504213352 | 23 | 264 | 6.4 | 8.0 | 0.00 | 0.00 | 0.00 | 37 | 1006.0 |
| 20260504212849 | 23 | 220 | 8.0 | 11.3 | 0.00 | 0.00 | 0.00 | 38 | 1005.9 |
| 20260504212345 | 24 | 196 | 9.7 | 12.9 | 0.00 | 0.00 | 0.00 | 34 | 1005.8 |
| 20260504211844 | 23 | 200 | 8.0 | 9.7 | 0.00 | 0.00 | 0.00 | 36 | 1005.9 |
| 20260504211339 | 24 | 226 | 12.9 | 16.1 | 0.00 | 0.00 | 0.00 | 36 | 1005.8 |
| 20260504210837 | 25 | 217 | 14.5 | 16.1 | 0.00 | 0.00 | 0.00 | 33 | 1005.8 |
| 20260504210334 | 24 | 199 | 14.5 | 16.1 | 0.00 | 0.00 | 0.00 | 33 | 1005.9 |
| 20260504205831 | 23 | 204 | 11.3 | 12.9 | 0.00 | 0.00 | 0.00 | 36 | 1006.0 |
| 20260504205329 | 25 | 223 | 11.3 | 14.5 | 0.00 | 0.00 | 0.00 | 35 | 1005.9 |
| 20260504204826 | 23 | 189 | 6.4 | 9.7 | 0.00 | 0.00 | 0.00 | 37 | 1006.0 |
| 20260504204325 | 24 | 237 | 11.3 | 12.9 | 0.00 | 0.00 | 0.00 | 36 | 1006.1 |
| 20260504203824 | 24 | 232 | 8.0 | 11.3 | 0.00 | 0.00 | 0.00 | 36 | 1006.0 |
| 20260504203320 | 24 | 231 | 9.7 | 12.9 | 0.00 | 0.00 | 0.00 | 34 | 1006.0 |
| 20260504202816 | 23 | 230 | 6.4 | 8.0 | 0.00 | 0.00 | 0.00 | 36 | 1005.9 |
| 20260504202314 | 23 | 217 | 8.0 | 12.9 | 0.00 | 0.00 | 0.00 | 36 | 1006.3 |
| 20260504201810 | 23 | 210 | 8.0 | 9.7 | 0.00 | 0.00 | 0.00 | 35 | 1006.3 |
| 20260504201308 | 24 | 222 | 11.3 | 16.1 | 0.00 | 0.00 | 0.00 | 35 | 1006.3 |
| 20260504200805 | 23 | 237 | 8.0 | 9.7 | 0.00 | 0.00 | 0.00 | 33 | 1006.7 |
| 20260504200301 | 24 | 249 | 9.7 | 14.5 | 0.00 | 0.00 | 0.00 | 33 | 1006.6 |
| 20260504195757 | 24 | 217 | 12.9 | 17.7 | 0.00 | 0.00 | 0.00 | 34 | 1006.6 |
| 20260504195253 | 24 | 217 | 11.3 | 14.5 | 0.00 | 0.00 | 0.00 | 33 | 1006.7 |
| 20260504194750 | 24 | 216 | 12.9 | 14.5 | 0.00 | 0.00 | 0.00 | 33 | 1006.6 |
| 20260504194247 | 25 | 265 | 19.3 | 27.4 | 0.00 | 0.00 | 0.00 | 33 | 1006.7 |
| 20260504193743 | 25 | 212 | 14.5 | 16.1 | 0.00 | 0.00 | 0.00 | 33 | 1006.8 |
| 20260504193240 | 25 | 220 | 6.4 | 9.7 | 0.00 | 0.00 | 0.00 | 33 | 1006.9 |
| 20260504192739 | 24 | 238 | 6.4 | 9.7 | 0.00 | 0.00 | 0.00 | 34 | 1006.8 |
| 20260504192236 | 25 | 233 | 9.7 | 12.9 | 0.00 | 0.00 | 0.00 | 33 | 1007.2 |
| 20260504191735 | 24 | 211 | 11.3 | 12.9 | 0.00 | 0.00 | 0.00 | 36 | 1007.2 |
| 20260504191231 | 24 | 249 | 14.5 | 17.7 | 0.00 | 0.00 | 0.00 | 36 | 1007.2 |
| 20260504190726 | 24 | 224 | 11.3 | 12.9 | 0.00 | 0.00 | 0.00 | 34 | 1007.1 |
| 20260504190223 | 23 | 240 | 16.1 | 20.9 | 0.00 | 0.00 | 0.00 | 32 | 1007.4 |
| 20260504185720 | 24 | 219 | 16.1 | 17.7 | 0.00 | 0.00 | 0.00 | 36 | 1007.3 |
| 20260504185217 | 23 | 255 | 12.9 | 17.7 | 0.00 | 0.00 | 0.00 | 35 | 1007.5 |
| 20260504184713 | 23 | 188 | 8.0 | 9.7 | 0.00 | 0.00 | 0.00 | 33 | 1007.5 |
| 20260504184209 | 23 | 209 | 16.1 | 20.9 | 0.00 | 0.00 | 0.00 | 38 | 1007.6 |
| 20260504183705 | 23 | 248 | 8.0 | 11.3 | 0.00 | 0.00 | 0.00 | 35 | 1007.8 |
| 20260504183202 | 23 | 143 | 11.3 | 12.9 | 0.00 | 0.00 | 0.00 | 37 | 1008.0 |
| 20260504182700 | 23 | 221 | 11.3 | 14.5 | 0.00 | 0.00 | 0.00 | 35 | 1008.0 |
| 20260504182157 | 22 | 188 | 14.5 | 14.5 | 0.00 | 0.00 | 0.00 | 38 | 1007.9 |
| 20260504181655 | 23 | 215 | 11.3 | 14.5 | 0.00 | 0.00 | 0.00 | 38 | 1008.1 |
| 20260504181152 | 22 | 211 | 9.7 | 11.3 | 0.00 | 0.00 | 0.00 | 35 | 1007.8 |
| 20260504180651 | 23 | 217 | 6.4 | 9.7 | 0.00 | 0.00 | 0.00 | 42 | 1008.0 |
| 20260504180149 | 22 | 178 | 8.0 | 11.3 | 0.00 | 0.00 | 0.00 | 36 | 1008.4 |
| 20260504175646 | 22 | 171 | 11.3 | 12.9 | 0.00 | 0.00 | 0.00 | 38 | 1008.5 |
| 20260504175142 | 23 | 220 | 9.7 | 11.3 | 0.00 | 0.00 | 0.00 | 38 | 1008.3 |
| 20260504174641 | 22 | 205 | 9.7 | 11.3 | 0.00 | 0.00 | 0.00 | 39 | 1008.6 |
| 20260504174137 | 22 | 222 | 14.5 | 16.1 | 0.00 | 0.00 | 0.00 | 39 | 1008.6 |
| 20260504173634 | 22 | 206 | 8.0 | 8.0 | 0.00 | 0.00 | 0.00 | 37 | 1008.7 |
| 20260504173132 | 22 | 155 | 11.3 | 14.5 | 0.00 | 0.00 | 0.00 | 39 | 1008.9 |
| 20260504172628 | 22 | 205 | 9.7 | 11.3 | 0.00 | 0.00 | 0.00 | 38 | 1009.1 |
| 20260504172125 | 22 | 190 | 11.3 | 12.9 | 0.00 | 0.00 | 0.00 | 39 | 1008.9 |
| 20260504171621 | 21 | 215 | 9.7 | 11.3 | 0.00 | 0.00 | 0.00 | 39 | 1009.0 |
| 20260504171119 | 21 | 176 | 8.0 | 11.3 | 0.00 | 0.00 | 0.00 | 40 | 1009.1 |
| 20260504170614 | 21 | 207 | 12.9 | 14.5 | 0.00 | 0.00 | 0.00 | 41 | 1009.3 |
| 20260504170112 | 22 | 198 | 12.9 | 14.5 | 0.00 | 0.00 | 0.00 | 38 | 1009.3 |
| 20260504150958 | 18 | 217 | 8.0 | 8.0 | 0.00 | 0.00 | 0.00 | 42 | 1010.8 |
| 20260504150455 | 18 | 222 | 4.8 | 4.8 | 0.00 | 0.00 | 0.00 | 41 | 1011.0 |
| 20260504140921 | 16 | 232 | 3.2 | 4.8 | 0.00 | 0.00 | 0.00 | 50 | 1011.7 |
| 20260504140417 | 16 | 196 | 1.6 | 3.2 | 0.00 | 0.00 | 0.00 | 45 | 1011.7 |
| 20260504130343 | 12 | 202 | 1.6 | 3.2 | 0.00 | 0.00 | 0.00 | 57 | 1012.2 |
| 20260504120306 | 7 | 202 | 0.0 | 0.0 | 0.00 | 0.00 | 0.00 | 78 | 1012.5 |